Regional Weather Roundup
Issued by NWS Cleveland, OH

Home | Current Version | Previous Version | Text Only | Print | Product List | Glossary On
Versions: 1 2 3 4 5 6 7 8 9 10 11 12 13 14 15 16 17 18 19 20 21 22 23 24 25 26 27 28 29 30 31 32 33 34 35 36 37 38 39 40 41 42 43 44 45 46 47 48 49 50
000
ASUS41 KCLE 251510
RWRCLE
OHIO REGIONAL WEATHER ROUNDUP
NATIONAL WEATHER SERVICE CLEVELAND, OH
1100 AM EDT SAT OCT 25 2014

NOTE: "FAIR" INDICATES FEW OR NO CLOUDS BELOW 12,000 FEET WITH NO
SIGNIFICANT WEATHER AND/OR OBSTRUCTIONS TO VISIBILITY.

OHZ001>008-015>018-024>027-034-035-043-044-251600-
   NORTHWEST OHIO

CITY           SKY/WX    TMP DP  RH WIND       PRES   REMARKS
DEFIANCE       CLOUDY    59  54  83 SW9       29.88F HAZE
FINDLAY        MOSUNNY   63  52  67 W15       29.88F HAZE
TOLEDO EXPRESS CLOUDY    59  53  80 SW16G23   29.85F
TOLEDO EXEC    PTSUNNY   60  52  74 SW14      29.85F
LIMA           SUNNY     62  52  69 SW14      29.91F
$$

OHZ009>014-019>023-028>033-038-089-251600-
   NORTHEAST OHIO

CITY           SKY/WX    TMP DP  RH WIND       PRES   REMARKS
CLE-HOPKINS    SUNNY     61  51  70 SW16G23   29.87F
CLE-LAKEFRONT  MOSUNNY   62  50  64 SW17      29.83F
CUY CO. ARPT   PTSUNNY   63  52  67 SW14      29.84F
LORAIN-ELYRIA  SUNNY     61  51  70 W13G23    29.86F
ASHTABULA      CLOUDY    56  48  74 SW9       29.84F
AKRON-CANTON   PTSUNNY   56  47  71 SW13      29.88F
WOOSTER        MOSUNNY   58  48  69 SW13      29.89F
MANSFIELD      MOSUNNY   61  50  67 SW17G26   29.89F
YOUNGSTOWN     MOSUNNY   58  49  72 SW14      29.86F
$$

OHZ042-051>053-060>062-070>072-077>081-251600-
  SOUTHWEST OHIO

CITY           SKY/WX    TMP DP  RH WIND       PRES   REMARKS
CINC-COVINGTON CLOUDY    58  50  75 SW8       30.00S
CINC-LUNKEN    CLOUDY    54  50  86 SW3       30.01S
HAMILTON       CLOUDY    59  52  77 VRB5      30.00S
DAYTON         PTSUNNY   59  52  77 SW10      29.97F
WRIGHT-PAT AFB MOSUNNY   59  52  77 SW12      29.96F
DAYTON GENERAL CLOUDY    57  51  80 SW9       29.98S
WILMINGTON     CLOUDY    57  50  77 SW15      29.98S
$$

OHZ036-037-039>041-045>050-054>059-063>069-073>076-082>088-251600-
  CENTRAL AND SOUTHEAST OHIO

CITY           SKY/WX    TMP DP  RH WIND       PRES   REMARKS
COLUMBUS       CLOUDY    53  46  77 S8        29.96F
OSU AIRPORT    CLOUDY    56  49  77 S9        29.96S
BOLTON FIELD   CLOUDY    55  52  88 SW7       29.97S
RICKENBACK AFB CLOUDY    53  48  83 S8        29.97S
NEWARK         CLOUDY    55  48  77 S6        29.95F
MARION         PTSUNNY   59  50  72 SW12      29.91F
LANCASTER      CLOUDY    60  51  72 SW10      29.97F
ZANESVILLE     CLOUDY    53  46  77 S9        29.96F
NEW PHILLY     CLOUDY    51  45  79 S5        29.95F
$$



USA.gov is the U.S. government's official web portal to all federal, state and local government web resources and services.